Samos, Greece

3:02 PM EET on February 06, 2016 (GMT +0200)
Samos

Weather History for LGSM - January, 2013

Change the Weather History Date:

Saturday, January 26, 2013

  Actual Average Record
Temperature  
Mean Temperature 57 °F -  
Max Temperature 60 °F 56 °F 66 °F (2009)
Min Temperature 53 °F 44 °F 35 °F (2006)
Degree Days  
Heating Degree Days 8    
Growing Degree Days 7 (Base 50)    
Moisture  
Dew Point 46 °F    
Average Humidity 64    
Maximum Humidity 82    
Minimum Humidity 35    
Precipitation  
Precipitation 0.08 in 0.14 in - ()
Sea Level Pressure  
Sea Level Pressure 29.58 in    
Wind  
Wind Speed 17 mph ()    
Max Wind Speed 25 mph    
Max Gust Speed -    
Visibility 6.0 miles    
Events Rain , Thunderstorm    
Averages and records for this station are not official NWS values.
T = Trace of Precipitation, MM = Missing Value Source: Averaged Metar Reports

Daily Weather History Graph

Daily Weather History Graph

Search for Another Location

Airport or City:

Trip Planner

Search our weather history database for the weather conditions in past years. The results will help you decide how hot, cold, wet, or windy it might be!

Date:

Astronomy

Jan. 26, 2013 Rise Set
Actual Time 7:20 AM EET 5:29 PM EET
Civil Twilight 6:52 AM EET 5:57 PM EET
Nautical Twilight 6:21 AM EET 6:29 PM EET
Astronomical Twilight 5:50 AM EET 7:00 PM EET
Moon 5:04 PM EET (1/26) 6:26 AM EET (1/26)
Length of Visible Light 11h 04m
Length of Day
10h 08m
Waxing Gibbous, 99% of the Moon is Illuminated
Jan 26
Waxing Gibbous
Jan 27
Full
Feb 3
Last Quarter
Feb 10
New
Feb 17
First Quarter

Hourly Weather History & Observations

Time (EET) Temp. Dew Point Humidity Pressure Visibility Wind Dir Wind Speed Gust Speed Precip Events Conditions
4:50 AM 59.0 °F 48.2 °F 67% 29.59 in 6.2 mi SW 16.1 mph - N/A Rain , Thunderstorm Thunderstorms and Rain
5:20 AM 59.0 °F 48.2 °F 67% 29.59 in 3.7 mi SSW 19.6 mph - N/A   Mostly Cloudy
5:50 AM 59.0 °F 48.2 °F 67% 29.56 in 5.0 mi SSW 23.0 mph - N/A   Mostly Cloudy
6:20 AM 59.0 °F 48.2 °F 67% 29.59 in 6.2 mi South 21.9 mph - N/A   Mostly Cloudy
6:50 AM 57.2 °F 48.2 °F 72% 29.56 in 6.2 mi SSW 23.0 mph - N/A   Mostly Cloudy
7:20 AM 57.2 °F 48.2 °F 72% 29.56 in 6.2 mi South 20.7 mph - N/A   Overcast
7:50 AM 59.0 °F 44.6 °F 59% 29.56 in 6.2 mi SSW 23.0 mph - N/A   Overcast
8:00 AM 59 °F 44 °F 48% 29.59 in 6 mi SSW 23.0 mph - -   Partly Cloudy
8:20 AM 59.0 °F 44.6 °F 59% 29.56 in 6.2 mi SSW 21.9 mph - N/A   Overcast
8:50 AM 59.0 °F 44.6 °F 59% 29.59 in 6.2 mi SSW 23.0 mph - N/A   Overcast
9:20 AM 59.0 °F 44.6 °F 59% 29.59 in 6.2 mi South 25.3 mph - N/A   Mostly Cloudy
9:50 AM 59.0 °F 42.8 °F 55% 29.59 in 6.2 mi SSW 19.6 mph - N/A   Mostly Cloudy
10:20 AM 59.0 °F 44.6 °F 59% 29.59 in 6.2 mi South 23.0 mph - N/A   Mostly Cloudy
10:50 AM 55.4 °F 42.8 °F 63% 29.59 in 4.3 mi SW 25.3 mph - N/A Rain Light Rain
11:20 AM 53.6 °F 44.6 °F 72% 29.59 in 6.2 mi South 20.7 mph - N/A Rain Rain
11:50 AM 57.2 °F 42.8 °F 59% 29.59 in 6.2 mi SSW 24.2 mph - N/A   Mostly Cloudy
12:20 PM 59.0 °F 41.0 °F 51% 29.56 in 6.2 mi South 20.7 mph - N/A   Mostly Cloudy
12:50 PM 59.0 °F 44.6 °F 59% 29.56 in 6.2 mi SSW 20.7 mph - N/A   Mostly Cloudy
1:20 PM 60.8 °F 42.8 °F 52% 29.56 in 6.2 mi SSW 20.7 mph - N/A   Mostly Cloudy
1:50 PM 60.8 °F 41.0 °F 48% 29.56 in 6.2 mi SSW 21.9 mph - N/A   Scattered Clouds
2:00 PM 61 °F 40 °F 35% 29.58 in 6 mi SSW 21.9 mph - -   Partly Cloudy
2:20 PM 60.8 °F 41.0 °F 48% 29.56 in 6.2 mi SSW 18.4 mph - N/A   Scattered Clouds
2:50 PM 60.8 °F 42.8 °F 52% 29.56 in 6.2 mi South 19.6 mph - N/A   Mostly Cloudy
3:20 PM 59.0 °F 48.2 °F 67% 29.56 in 6.2 mi SSW 16.1 mph - N/A   Light Drizzle
3:50 PM 57.2 °F 50.0 °F 77% 29.56 in 6.2 mi SW 11.5 mph - N/A   Light Drizzle
4:20 PM 57.2 °F 50.0 °F 77% 29.56 in 6.2 mi SSW 15.0 mph - N/A Rain Light Rain
4:50 PM 55.4 °F 48.2 °F 77% 29.56 in 6.2 mi SSE 13.8 mph - N/A   Light Drizzle
5:20 PM 55.4 °F 48.2 °F 77% 29.56 in 6.2 mi South 17.3 mph - N/A   Mostly Cloudy
5:50 PM 55.4 °F 48.2 °F 77% 29.59 in 6.2 mi WNW 5.8 mph - N/A   Mostly Cloudy
6:20 PM 53.6 °F 48.2 °F 82% 29.59 in 6.2 mi NW 4.6 mph - N/A   Scattered Clouds
6:50 PM 55.4 °F 48.2 °F 77% 29.59 in 6.2 mi SSW 12.7 mph - N/A   Scattered Clouds
7:20 PM 55.4 °F 48.2 °F 77% 29.59 in 6.2 mi SSW 12.7 mph - N/A   Scattered Clouds
7:50 PM 55.4 °F 48.2 °F 77% 29.59 in 6.2 mi SSW 11.5 mph - N/A   Scattered Clouds
8:00 PM 56 °F 48 °F 66% 29.61 in 6 mi SSW 11.5 mph - -   Partly Cloudy